Hourly Weather Barnstable

Today, 8 May, Saturday

Time Temperature Precipitation Wind Pressure Humidity
00:00 +7°C° 0 mm 5 mps 757 mmHg 65%
01:00 +7°C° 0 mm 6 mps 756 mmHg 65%
02:00 +7°C° 0 mm 6 mps 756 mmHg 65%
03:00 +7°C° 0 mm 6 mps 756 mmHg 65%
04:00 +7°C° 0 mm 6 mps 756 mmHg 64%
05:00 +7°C° 0 mm 6 mps 756 mmHg 65%
06:00 +8°C° 0 mm 6 mps 756 mmHg 66%
07:00 +8°C° 0 mm 5 mps 757 mmHg 66%
08:00 +8°C° 0 mm 5 mps 757 mmHg 68%
09:00 +9°C° 0 mm 5 mps 757 mmHg 69%
10:00 +9°C° 0 mm 5 mps 757 mmHg 70%
11:00 +9°C° 0 mm 5 mps 757 mmHg 67%
12:00 +10°C° 0 mm 4 mps 757 mmHg 64%
13:00 +11°C° 0 mm 4 mps 757 mmHg 60%
14:00 +10°C° 0 mm 3 mps 757 mmHg 62%
15:00 +10°C° 0 mm 2 mps 757 mmHg 63%
16:00 +11°C° 0 mm 1 mps 757 mmHg 64%
17:00 +9°C° 0 mm 2 mps 757 mmHg 68%
18:00 +9°C° 0 mm 3 mps 758 mmHg 71%
19:00 +8°C° 0 mm 4 mps 758 mmHg 75%
20:00 +7°C° 0 mm 5 mps 758 mmHg 76%
21:00 +7°C° 0 mm 5 mps 758 mmHg 78%
22:00 +7°C° 0 mm 6 mps 758 mmHg 79%
23:00 +7°C° 0 mm 6 mps 758 mmHg 80%

Tomorrow, 9 May, Sunday

Time Temperature Precipitation Wind Pressure Humidity
00:00 +6°C° 0 mm 7 mps 758 mmHg 81%
01:00 +6°C° 0 mm 7 mps 758 mmHg 81%
02:00 +5°C° 0 mm 7 mps 758 mmHg 83%
03:00 +5°C° 0 mm 7 mps 758 mmHg 84%
04:00 +4°C° 0 mm 7 mps 758 mmHg 85%
05:00 +5°C° 0 mm 7 mps 758 mmHg 80%
06:00 +7°C° 0 mm 6 mps 759 mmHg 75%
07:00 +8°C° 0 mm 6 mps 759 mmHg 70%
08:00 +10°C° 0 mm 6 mps 759 mmHg 63%
09:00 +13°C° 0 mm 5 mps 760 mmHg 56%
10:00 +14°C° 0 mm 4 mps 760 mmHg 50%
11:00 +15°C° 0 mm 4 mps 760 mmHg 49%
12:00 +15°C° 0 mm 4 mps 759 mmHg 49%
13:00 +15°C° 0 mm 4 mps 759 mmHg 48%
14:00 +14°C° 0 mm 6 mps 759 mmHg 53%
15:00 +14°C° 0 mm 7 mps 759 mmHg 58%
16:00 +12°C° 0 mm 9 mps 759 mmHg 63%
17:00 +11°C° 0 mm 9 mps 760 mmHg 67%
18:00 +10°C° 0 mm 9 mps 760 mmHg 71%
19:00 +9°C° 0 mm 10 mps 760 mmHg 76%
20:00 +8°C° 0 mm 9 mps 760 mmHg 76%
21:00 +9°C° 0 mm 8 mps 760 mmHg 76%
22:00 +8°C° 0 mm 6 mps 760 mmHg 76%
23:00 +8°C° 1 mm 6 mps 759 mmHg 82%

Day after tomorrow, 10 May, Monday

Time Temperature Precipitation Wind Pressure Humidity
00:00 +8°C° 1 mm 6 mps 758 mmHg 89%
01:00 +8°C° 1 mm 5 mps 757 mmHg 95%
02:00 +8°C° 3.9 mm 5 mps 756 mmHg 96%
03:00 +8°C° 3.9 mm 5 mps 755 mmHg 96%
04:00 +8°C° 3.9 mm 4 mps 754 mmHg 97%
05:00 +8°C° 1.6 mm 5 mps 754 mmHg 97%
06:00 +8°C° 1.6 mm 5 mps 754 mmHg 97%
07:00 +8°C° 1.6 mm 5 mps 754 mmHg 97%
08:00 +8°C° 0.1 mm 5 mps 754 mmHg 95%
09:00 +8°C° 0.1 mm 5 mps 755 mmHg 94%
10:00 +8°C° 0.1 mm 6 mps 755 mmHg 93%
11:00 +8°C° 0 mm 5 mps 756 mmHg 91%
12:00 +8°C° 0 mm 5 mps 756 mmHg 90%
13:00 +8°C° 0 mm 4 mps 757 mmHg 88%
14:00 +10°C° 0 mm 4 mps 757 mmHg 85%
15:00 +10°C° 0 mm 3 mps 757 mmHg 83%
16:00 +10°C° 0 mm 3 mps 757 mmHg 80%
17:00 +10°C° 0 mm 2 mps 758 mmHg 82%
18:00 +10°C° 0 mm 2 mps 758 mmHg 84%
19:00 +10°C° 0 mm 1 mps 759 mmHg 86%
20:00 +9°C° 0 mm 2 mps 759 mmHg 87%
21:00 +9°C° 0 mm 2 mps 759 mmHg 88%
22:00 +9°C° 0 mm 3 mps 759 mmHg 90%
23:00 +9°C° 0 mm 3 mps 759 mmHg 91%

11 May, Tuesday

Time Temperature Precipitation Wind Pressure Humidity
00:00 +7°C° 0 mm 4 mps 759 mmHg 92%
01:00 +7°C° 0 mm 4 mps 759 mmHg 94%
02:00 +7°C° 0 mm 4 mps 759 mmHg 88%
03:00 +6°C° 0 mm 4 mps 759 mmHg 82%
04:00 +6°C° 0 mm 5 mps 759 mmHg 77%
05:00 +7°C° 0 mm 5 mps 759 mmHg 70%
06:00 +8°C° 0 mm 5 mps 759 mmHg 64%
07:00 +9°C° 0 mm 6 mps 760 mmHg 57%
08:00 +10°C° 0 mm 5 mps 760 mmHg 50%
09:00 +13°C° 0 mm 5 mps 760 mmHg 42%
10:00 +14°C° 0 mm 5 mps 760 mmHg 35%
11:00 +15°C° 0 mm 5 mps 760 mmHg 34%
12:00 +15°C° 0 mm 6 mps 759 mmHg 33%
13:00 +15°C° 0 mm 6 mps 759 mmHg 32%
14:00 +15°C° 0 mm 6 mps 759 mmHg 35%
15:00 +15°C° 0 mm 7 mps 759 mmHg 38%
16:00 +15°C° 0 mm 7 mps 758 mmHg 41%
17:00 +14°C° 0.1 mm 6 mps 759 mmHg 44%
18:00 +11°C° 0.1 mm 6 mps 759 mmHg 47%
19:00 +10°C° 0.1 mm 5 mps 759 mmHg 50%
20:00 +9°C° 0 mm 6 mps 759 mmHg 53%
21:00 +8°C° 0 mm 7 mps 760 mmHg 55%
22:00 +6°C° 0 mm 7 mps 760 mmHg 57%
23:00 +6°C° 0 mm 8 mps 760 mmHg 61%

12 May, Wednesday

Time Temperature Precipitation Wind Pressure Humidity
00:00 +5°C° 0 mm 8 mps 760 mmHg 64%
01:00 +5°C° 0 mm 9 mps 760 mmHg 67%
02:00 +3°C° 0 mm 9 mps 760 mmHg 70%
03:00 +3°C° 0 mm 9 mps 760 mmHg 73%
04:00 +2°C° 0 mm 9 mps 760 mmHg 76%
05:00 +4°C° 0 mm 8 mps 761 mmHg 72%
06:00 +5°C° 0 mm 8 mps 762 mmHg 67%
07:00 +6°C° 0 mm 7 mps 762 mmHg 63%
08:00 +9°C° 0 mm 7 mps 762 mmHg 56%
09:00 +13°C° 0 mm 6 mps 763 mmHg 49%
10:00 +15°C° 0 mm 5 mps 763 mmHg 42%
11:00 +15°C° 0 mm 4 mps 763 mmHg 39%
12:00 +17°C° 0 mm 3 mps 763 mmHg 36%
13:00 +18°C° 0 mm 2 mps 763 mmHg 33%
14:00 +18°C° 0 mm 3 mps 763 mmHg 35%
15:00 +17°C° 0 mm 3 mps 763 mmHg 37%
16:00 +17°C° 0 mm 4 mps 764 mmHg 38%
17:00 +16°C° 0 mm 3 mps 764 mmHg 43%
18:00 +14°C° 0 mm 3 mps 764 mmHg 47%
19:00 +13°C° 0 mm 3 mps 764 mmHg 51%
20:00 +12°C° 0 mm 4 mps 765 mmHg 50%
21:00 +12°C° 0 mm 5 mps 765 mmHg 48%
22:00 +11°C° 0 mm 6 mps 766 mmHg 46%
23:00 +10°C° 0 mm 5 mps 766 mmHg 51%

13 May, Thursday

Time Temperature Precipitation Wind Pressure Humidity
00:00 +9°C° 0 mm 5 mps 766 mmHg 56%
01:00 +8°C° 0 mm 5 mps 766 mmHg 62%
02:00 +8°C° 0 mm 5 mps 766 mmHg 63%
03:00 +7°C° 0 mm 5 mps 767 mmHg 65%
04:00 +7°C° 0 mm 5 mps 767 mmHg 67%
05:00 +9°C° 0 mm 5 mps 767 mmHg 61%
06:00 +12°C° 0 mm 5 mps 767 mmHg 56%
07:00 +13°C° 0 mm 4 mps 767 mmHg 51%
08:00 +15°C° 0 mm 4 mps 767 mmHg 45%
09:00 +18°C° 0 mm 4 mps 767 mmHg 38%
10:00 +20°C° 0 mm 4 mps 767 mmHg 32%
11:00 +21°C° 0 mm 3 mps 767 mmHg 32%
12:00 +21°C° 0 mm 3 mps 767 mmHg 31%
13:00 +22°C° 0 mm 3 mps 766 mmHg 30%
14:00 +21°C° 0 mm 4 mps 766 mmHg 33%
15:00 +21°C° 0 mm 4 mps 766 mmHg 36%
16:00 +20°C° 0 mm 5 mps 765 mmHg 39%
17:00 +17°C° 0 mm 5 mps 765 mmHg 46%
18:00 +16°C° 0 mm 6 mps 766 mmHg 53%
19:00 +14°C° 0 mm 7 mps 766 mmHg 59%
20:00 +13°C° 0 mm 6 mps 766 mmHg 58%
21:00 +13°C° 0 mm 6 mps 766 mmHg 58%
22:00 +13°C° 0 mm 5 mps 766 mmHg 57%
23:00 +12°C° 0 mm 5 mps 766 mmHg 60%
Show more